Tracking 19832 objects as of 24-Aug-2019
HD Live streaming from Space Station
objects crossing your sky now

COSMOS 2251 DEB

Track COSMOS 2251 DEB now!
10-day predictions


NORAD ID: 35843
Int'l Code: 1993-036ATR
Perigee: 660.7 km
Apogee: 790.0 km
Inclination: 74.0 °
Period: 99.2 minutes
Semi major axis: 7096 km
RCS: 0.0117 m2 (small)
Launch date: June 16, 1993
Source: Commonwealth of Independent States (former USSR) (CIS)
Launch site: PLESETSK MISSILE AND SPACE COMPLEX (PKMTR)

Note: This is SATELLITE DEBRIS
aabbcc
Your satellite tracking list
Your tracking list is empty




NASA's NSSDC Master Catalog

Two Line Element Set (TLE):
1 35843U 93036ATR 19234.32144662 +.00002232 +00000-0 +52685-3 0  9999
2 35843 074.0161 215.7730 0091068 061.0790 299.9467 14.52286304314319
Source of the keplerian elements: AFSPC